Weather History for Tuscaloosa, AL

Change the Weather History Date:

Sunday, December 15, 2013

  Actual Average Record
Temperature  
Mean Temperature 37 °F 47 °F  
Max Temperature 43 °F 58 °F 76 °F (1948)
Min Temperature 30 °F 36 °F 16 °F (1968)
Degree Days  
Heating Degree Days 28 18  
Month to date heating degree days 252 251  
Since 1 July heating degree days 719 688  
Moisture  
Dew Point 31 °F    
Average Humidity 74    
Maximum Humidity 82    
Minimum Humidity 65    
Precipitation  
Precipitation 0.00 in 0.14 in 1.51 in (1982)
Month to date precipitation 4.00 2.48  
Year to date precipitation 47.83 50.46  
Sea Level Pressure  
Sea Level Pressure 30.22 in    
Wind  
Wind Speed 7 mph (NW)    
Max Wind Speed 15 mph    
Max Gust Speed 20 mph    
Visibility 10 miles    
Events      
T = Trace of Precipitation, MM = Missing Value Source: NWS Daily Summary

Daily Weather History Graph

Daily Weather History Graph

Search for Another Location

Airport:

Trip Planner

Search our weather history database for the weather conditions in past years. The results will help you decide how hot, cold, wet, or windy it might be!

Date:

Astronomy

Dec. 15, 2013 Rise Set
Actual Time 6:46 AM CST 4:44 PM CST
Civil Twilight 6:19 AM CST 5:12 PM CST
Nautical Twilight 5:48 AM CST 5:43 PM CST
Astronomical Twilight 5:18 AM CST 6:13 PM CST
Moon 3:45 PM CST (12/15) 5:06 AM CST (12/15)
Length of Visible Light 10h 53m
Length of Day
9h 58m
Waxing Gibbous, 98% of the Moon is Illuminated
Dec 15
Waxing Gibbous
Dec 17
Full
Dec 25
Last Quarter
Jan 1
New
Jan 7
First Quarter

Hourly Weather History & Observations

Time (CST) Temp. Windchill Dew Point Humidity Pressure Visibility Wind Dir Wind Speed Gust Speed Precip Events Conditions
12:53 AM 41.0 °F 34.3 °F 35.1 °F 79% 30.06 in 10.0 mi WNW 11.5 mph 18.4 mph N/A   Overcast
1:53 AM 42.1 °F 35.7 °F 36.0 °F 79% 30.08 in 10.0 mi NW 11.5 mph - N/A   Overcast
2:10 AM 42.8 °F 37.5 °F 35.6 °F 76% 30.09 in 10.0 mi NW 9.2 mph - N/A   Overcast
2:17 AM 42.8 °F 38.0 °F 35.6 °F 76% 30.09 in 10.0 mi NW 8.1 mph - N/A   Overcast
2:53 AM 42.1 °F 37.7 °F 34.0 °F 73% 30.09 in 10.0 mi NNW 6.9 mph 17.3 mph N/A   Overcast
3:00 AM 42.8 °F 38.6 °F 33.8 °F 70% 30.09 in 10.0 mi NNW 6.9 mph - N/A   Overcast
3:53 AM 41.0 °F 34.7 °F 32.0 °F 70% 30.12 in 10.0 mi NW 10.4 mph 19.6 mph N/A   Overcast
4:19 AM 39.2 °F 33.6 °F 33.8 °F 81% 30.13 in 10.0 mi NW 8.1 mph - N/A   Overcast
4:53 AM 39.9 °F 35.8 °F 32.0 °F 73% 30.14 in 10.0 mi NW 5.8 mph - N/A   Overcast
5:53 AM 39.9 °F 33.4 °F 32.0 °F 73% 30.16 in 10.0 mi NNW 10.4 mph - N/A   Overcast
6:53 AM 39.9 °F 33.9 °F 30.9 °F 70% 30.19 in 10.0 mi NNW 9.2 mph 16.1 mph N/A   Overcast
7:53 AM 39.0 °F 32.3 °F 30.9 °F 73% 30.22 in 10.0 mi NNW 10.4 mph - N/A   Overcast
8:53 AM 39.0 °F 32.3 °F 30.9 °F 73% 30.25 in 9.0 mi NW 10.4 mph - N/A   Overcast
9:53 AM 39.0 °F 32.8 °F 30.0 °F 70% 30.26 in 10.0 mi NNW 9.2 mph - N/A   Overcast
10:53 AM 39.9 °F 33.9 °F 30.0 °F 68% 30.26 in 10.0 mi North 9.2 mph - N/A   Overcast
11:53 AM 41.0 °F 34.7 °F 30.9 °F 67% 30.23 in 10.0 mi North 10.4 mph - N/A   Overcast
12:53 PM 41.0 °F 36.4 °F 30.9 °F 67% 30.23 in 10.0 mi WNW 6.9 mph - N/A   Overcast
1:53 PM 39.9 °F 35.1 °F 30.9 °F 70% 30.24 in 10.0 mi NNW 6.9 mph - N/A   Overcast
2:53 PM 39.9 °F 35.1 °F 30.0 °F 68% 30.26 in 10.0 mi NNW 6.9 mph - N/A   Overcast
3:53 PM 39.9 °F 35.1 °F 30.9 °F 70% 30.27 in 9.0 mi NW 6.9 mph - N/A   Overcast
4:53 PM 39.0 °F 34.0 °F 30.9 °F 73% 30.28 in 10.0 mi NW 6.9 mph - N/A   Overcast
5:53 PM 37.9 °F 33.5 °F 28.9 °F 70% 30.28 in 10.0 mi West 5.8 mph - N/A   Overcast
6:53 PM 37.0 °F 34.5 °F 28.9 °F 73% 30.29 in 10.0 mi NNW 3.5 mph - N/A   Overcast
7:53 PM 37.0 °F 33.3 °F 30.0 °F 76% 30.30 in 10.0 mi NNW 4.6 mph - N/A   Overcast
8:53 PM 37.0 °F 34.5 °F 30.0 °F 76% 30.30 in 10.0 mi NW 3.5 mph - N/A   Overcast
9:53 PM 36.0 °F 33.3 °F 28.9 °F 76% 30.32 in 10.0 mi NNW 3.5 mph - N/A   Overcast
10:25 PM 35.6 °F 32.8 °F 28.4 °F 75% 30.32 in 10.0 mi NNW 3.5 mph - N/A   Mostly Cloudy
10:40 PM 33.8 °F 27.7 °F 28.4 °F 81% 30.32 in 10.0 mi NNW 6.9 mph - N/A   Scattered Clouds
10:53 PM 34.0 °F - 28.0 °F 79% 30.31 in 10.0 mi Calm Calm - N/A   Clear
11:53 PM 30.0 °F - 28.0 °F 92% 30.29 in 8.0 mi Calm Calm - N/A   Clear